"Pseudo-MPEC" for or02235

Created 2023 Mar 28 7:22:22 UT using Find_Orb

Click here for an explanation of pseudo-MPECs

 
 Astrometry: 
     or02235*KC2023 03 24Rwtn^Q%=s4lF5G1nduJ.Mp_R-cEIAwoyoSQ13H^G:*6;o*%E.3r%J43
     or02235 KC2023 03 24LJfjo61l6F+4wpGyTH99^TbC3-QFYVr*wS3MF#.F/BCYCvhk5[)CJ43
     or02235 KC2023 03 25wLV+$V4(H1ExLZHeExAstrometryEAfj0!tSyFc^$?9G%$l[#?]%J43
     or02235 |C2023 03 26S_DV^BU%cidtB=t_!y$Xl%]pLMkU,x:P.Rsd1\8v2[?e_wWd4(6R807
     or02235 |C2023 03 26U[ab4UlB-e`!$:@)O9H47S%bCX=YsYmOL5\kv!mTsoq4iTc(VRs6807
     or02235 |C2023 03 26_yx\1p;*O.YUxGNq:(jcSXR-vZdNTg-SII?HxMredacted;\.%xU807
     or02235 |C2023 03 27Soo\925rdwnx;v,oclickc9Hf1q+ZJ3X8n3l=\NVn=N2:vdUrqK5807
     or02235 |C2023 03 27dsVvEa0INL'gtn37*;mRXvdsr(NEyS4dMherej:L,JuZvVGforp$807
     or02235 |C2023 03 27Za.O.:.^X'1`/V:cj$j5Ahk!G#h%7)gg7'uv9-ye=9Naqrvi4q1Y807
     or02235 1C2023 03 27.91988 11 34 58.49 +11 07 18.8    ~3RN7 21.5 VXNEOCP033
     or02235 1C2023 03 27.92196 11 34 58.64 +11 07 34.1    ~3RN7 21.4 VXNEOCP033
     or02235 1C2023 03 27.92404 11 34 58.79 +11 07 49.8    ~3RN7 21.4 VXNEOCP033
     or02235 KC2023 03 28s)ZvK_3TF-uBQ)T=mE;?lb,ctf\WF2)`F]f)NP%Nexplanation'H21
     or02235 KC2023 03 28b(xPxXIJ1Hg_hJ=i6)\]o7AwgH=b!3lyk;;o'=]f`a]Ow]X4u'KpH21
     or02235 KC2023 03 28%lp_:gG;!::F//p6M-#3H`Ext3sU8i4*9sE[A:\5/\DR5E_82aRNH21

Station data:
(033) Karl Schwarzschild Observatory, Tautenburg  (N50.980137 E11.711240)
   Germany.  Observers S. Melnikov, C. Hoegner, B. Stecklum. Measurer B.
   Stecklum. 1.34-m f/3 Schmidt + CCD.
(807) Cerro Tololo Observatory, La Serena  (S30.169133 W70.805900)  Chile.
   Observer R. Holmes. 0.61-m f/6.5 astrograph + CCD.
(H21) Astronomical Research Observatory, Westfield  (N39.483054 W87.968270)
   US/Illinois.  Observer R. Holmes. Measurers S. Foglia, L. Buzzi, T.
   Linder, R. Holmes. 0.76-m f/3.0 astrograph + CCD0.81-m f/4.0 astrograph +
   CCD0.61-m f/4.5 astrograph + CCD0.40-m f/5.32 astrograph + CCD.
(J43) Oukaïmeden Observatory, Marrakech  (N31.206437 W7.866460)  Morocco.
   Observer C. Rinner. Measurers C. Rinner, M. Ory. 0.5-m f/3 reflector + CCD.

Orbital elements:  or02235
   Perihelion 2022 Dec 29.87473 +/- 0.551 TT = 20:59:36 (JD 2459943.37473)
Epoch 2023 Mar 28.0 TT = JDT 2460031.5   Earth MOID: 0.1312      AutoNEOCP
M  64.14538431 +/- 1.0              (J2000 ecliptic)
n   0.72788862 +/- 0.00706          Peri.  271.05932 +/- 0.58
a   1.22393802 +/- 0.00784          Node   181.80992 +/- 0.017
e   0.2415615 +/- 0.00422           Incl.   24.91730 +/- 0.35
P   1.35/494.57d           H 24.14  G  0.15   U  9.4
q 0.92828169 +/- 0.000869    Q 1.51959435 +/- 0.0149
14 of 15 observations 2023 Mar. 24-28; mean residual 0".53
Residuals in arcseconds: 
230324 J43( 1.8+  2.9-)   230326 807  .74+  .30-    230327 033  .12+  .01+    
230324 J43  .91-  .45-    230327 807  .31-  .46-    230327 033  .51+  .02-    
230325 J43  1.2+  .32+    230327 807  1.4-  .20-    230328 H21  .17+  .17+    
230326 807  .36-  .06+    230327 807  .25+  .09-    230328 H21  .02+  .15-    
230326 807  .48-  .91+    230327 033  .27-  .44+    230328 H21  .33+  .23-    

Ephemerides (geocentric):
Date (UTC) HH   RA             Dec           delta  r     elong  mag " sig PA
---- --------  ------------   ------------  ------ ------ -----  --- --------
2023 03 28 07  11 35 25.412   +11 54 05.04  .17225 1.1619 160.7 21.6 .606   2
2023 03 28 08  11 35 28.439   +11 59 11.35  .17249 1.1621 160.6 21.6 .651   3
2023 03 28 09  11 35 31.463   +12 04 16.75  .17273 1.1622 160.5 21.6 .697   4
2023 03 28 10  11 35 34.484   +12 09 21.25  .17297 1.1624 160.4 21.6 .744   4
2023 03 28 11  11 35 37.502   +12 14 24.84  .17321 1.1626 160.3 21.6 .792   5
2023 03 28 12  11 35 40.517   +12 19 27.53  .17345 1.1627 160.2 21.6 .841   6
2023 03 28 13  11 35 43.530   +12 24 29.31  .17370 1.1629 160.1 21.6 .890   6
2023 03 28 14  11 35 46.539   +12 29 30.20  .17394 1.1630 160.1 21.6 .941   7
2023 03 28 15  11 35 49.546   +12 34 30.19  .17418 1.1632 160.0 21.6 0.99   7
2023 03 28 16  11 35 52.549   +12 39 29.28  .17442 1.1634 159.9 21.6 1.04   8
2023 03 28 17  11 35 55.550   +12 44 27.48  .17467 1.1635 159.8 21.6 1.10   8
2023 03 28 18  11 35 58.548   +12 49 24.78  .17491 1.1637 159.7 21.6 1.15   9
2023 03 28 19  11 36 01.544   +12 54 21.19  .17515 1.1638 159.6 21.7 1.20   9
2023 03 28 20  11 36 04.536   +12 59 16.71  .17540 1.1640 159.5 21.7 1.26  10
2023 03 28 21  11 36 07.526   +13 04 11.34  .17564 1.1642 159.4 21.7 1.31  10
2023 03 28 22  11 36 10.513   +13 09 05.08  .17589 1.1643 159.3 21.7 1.37  10
2023 03 28 23  11 36 13.497   +13 13 57.94  .17614 1.1645 159.2 21.7 1.43  11
2023 03 29 00  11 36 16.479   +13 18 49.92  .17638 1.1647 159.1 21.7 1.48  11
2023 03 29 01  11 36 19.457   +13 23 41.01  .17663 1.1648 159.0 21.7 1.54  11
2023 03 29 02  11 36 22.433   +13 28 31.22  .17688 1.1650 159.0 21.7 1.60  11
2023 03 29 03  11 36 25.407   +13 33 20.56  .17713 1.1651 158.9 21.7 1.66  12
2023 03 29 04  11 36 28.377   +13 38 09.02  .17738 1.1653 158.8 21.7 1.72  12
2023 03 29 05  11 36 31.345   +13 42 56.60  .17762 1.1655 158.7 21.7 1.78  12
2023 03 29 06  11 36 34.311   +13 47 43.31  .17787 1.1656 158.6 21.7 1.84  12
2023 03 29 07  11 36 37.273   +13 52 29.15  .17812 1.1658 158.5 21.7 1.90  13
2023 03 29 08  11 36 40.233   +13 57 14.12  .17838 1.1659 158.4 21.7 1.96  13
2023 03 29 09  11 36 43.190   +14 01 58.23  .17863 1.1661 158.3 21.7 2.03  13
2023 03 29 10  11 36 46.145   +14 06 41.46  .17888 1.1663 158.2 21.7 2.09  13
2023 03 29 11  11 36 49.097   +14 11 23.84  .17913 1.1664 158.1 21.7 2.15  13
2023 03 29 12  11 36 52.047   +14 16 05.35  .17938 1.1666 158.0 21.8 2.22  14
2023 03 29 13  11 36 54.994   +14 20 45.99  .17964 1.1667 158.0 21.8 2.28  14
2023 03 29 14  11 36 57.938   +14 25 25.79  .17989 1.1669 157.9 21.8 2.35  14
2023 03 29 15  11 37 00.880   +14 30 04.72  .18014 1.1671 157.8 21.8 2.41  14
2023 03 29 16  11 37 03.819   +14 34 42.80  .18040 1.1672 157.7 21.8 2.48  14
2023 03 29 17  11 37 06.756   +14 39 20.02  .18065 1.1674 157.6 21.8 2.54  14
2023 03 29 18  11 37 09.690   +14 43 56.40  .18091 1.1676 157.5 21.8 2.61  15
2023 03 29 19  11 37 12.621   +14 48 31.92  .18116 1.1677 157.4 21.8 2.68  15
2023 03 29 20  11 37 15.550   +14 53 06.60  .18142 1.1679 157.3 21.8 2.75  15
2023 03 29 21  11 37 18.477   +14 57 40.43  .18168 1.1680 157.2 21.8 2.82  15
2023 03 29 22  11 37 21.401   +15 02 13.42  .18193 1.1682 157.2 21.8 2.88  15
2023 03 29 23  11 37 24.323   +15 06 45.57  .18219 1.1684 157.1 21.8 2.95  15
2023 03 30 00  11 37 27.242   +15 11 16.87  .18245 1.1685 157.0 21.8 3.02  15
2023 03 30 01  11 37 30.159   +15 15 47.34  .18271 1.1687 156.9 21.8 3.09  16
2023 03 30 02  11 37 33.073   +15 20 16.97  .18296 1.1688 156.8 21.8 3.16  16
2023 03 30 03  11 37 35.985   +15 24 45.77  .18322 1.1690 156.7 21.8 3.24  16
2023 03 30 04  11 37 38.894   +15 29 13.73  .18348 1.1692 156.6 21.8 3.31  16
2023 03 30 05  11 37 41.801   +15 33 40.87  .18374 1.1693 156.5 21.8 3.38  16
2023 03 30 06  11 37 44.706   +15 38 07.17  .18400 1.1695 156.5 21.9 3.45  16